Track ONEWEB-0169 now! 10-day predictions ONEWEB-0169 is classified as:
1 48077U 21025AM 22137.09211102 .00000355 00000-0 93657-3 0 9993 2 48077 87.9016 256.6532 0002137 102.6678 257.4690 13.13467535 57677